STARLINK-34642, 64910

Orbit data source: Space-Track

STARLINK-34642, 64910 is a payload satellite owned by SpaceX/Seattle (US) in LEO that was launched on Sat, 26 Jul 2025 UTC via an FALCON 9 launch vehicle from the Air Force Eastern Test Range (AFETR). Payload-class satellites include a variety of spacecraft equipped with specific instruments for various scientific and technological missions. These include communications satellites like Starlink; space stations such as the ISS; scientific satellites like the Hubble; Earth observation satellites from companies like Planet Labs, Umbra, and HawkEye 360; GPS; miniature CubeSats for education and research; and military/defense satellites.

Loading next visibility...
Identifier
64910, 2025-157G
Orbit
LEO
Country
Flag of USUS
Related business
Manufacturer
SpaceX/Seattle
Mission
Operational Commercial Communications
Bus & Motor
STARLINK V2MO, Unknown motor
Mass
575 kg wet, ~530 kg dry
Launch date (UTC)
2025-07-26 (4 months ago)
Launch vehicle
FALCON 9
Launch site
Air Force Eastern Test Range (AFETR)
Object type
Payload
Rocket body
Debris
Shape & HBR
Box + 2 Pan, 17.7 m
Radar Cross Section
36.964 m², Large (>1 m²)

Expand to show TLE details & history
Last TLE update: 18 hours ago

TLE from 18 hours ago
0 STARLINK-34642
1 64910U 25157G   25340.63522087  .00091814  00000-0  22710-2 0  9994
2 64910  53.1591  62.3854 0001358 255.9239 104.1616 15.39711318 21816
Epoch: 2025-12-06T15:14Z
TLE epoch observation values (Epoch: 2025-12-06T15:14:43.083Z)
Latitude
0.00008°
Longitude
118.04581°
Altitude
448.092 km
Speed
7.644 km/s
True Right ascension
04h 09m 32s
True Declination
0° 00' 00"
Sunlit
Object was in full shadow at epoch
Visualization orbit readout
Latitude
Unknown
Longitude
Unknown
Altitude
Unknown
Speed
Unknown
Apparent Right ascension
Unknown
Apparent Declination
Unknown
Sunlit
N/A
Visualization observer readout
Local Sidereal Time
07:39:49
Azimuth
Unknown
Elevation
Unknown
Doppler factor
Unknown
Orbital elements
Apogee altitude
448.147 km
Perigee altitude
446.293 km
Semi-major axis
6,825.357 km
Eccentricity
0.00014
Inclination
53.1591°
RAAN
62.3854°
Arg. of periapsis
255.9239°
True anomaly
104.17669°
Mean anomaly
104.1616°
Eccentric anomaly
104.16914°
Mean motion
3.84906 °/min
Orbital period
93.53 mins
BSTAR
0.002271
Loading maneuver chart data...
Computing Atmospheric mass density...
Loading historical data...
Loading historical data...
Loading historical data...
Loading historical data...
Loading historical data...
Loading historical data...
Loading historical data...

Documentation

Showing up to 5 results
|